EST,Max TemperatureF,Mean TemperatureF,Min TemperatureF,Max Dew PointF,MeanDew PointF,Min DewpointF,Max Humidity, Mean Humidity, Min Humidity, Max Sea Level PressureIn, Mean Sea Level PressureIn, Min Sea Level PressureIn, Max VisibilityMiles, Mean VisibilityMiles, Min VisibilityMiles, Max Wind SpeedMPH, Mean Wind SpeedMPH, Max Gust SpeedMPH,PrecipitationIn, CloudCover, Events, WindDirDegrees
2013-12-1,44,37,30,32,28,25,86,70,57,30.07,30.04,30.01,10,10,7,6,2,,0.00,1,,334
2013-12-2,41,36,30,28,27,25,87,72,53,29.93,29.88,29.84,10,7,2,10,4,,0.00,5,,106
2013-12-3,48,42,35,45,39,32,100,91,81,29.80,29.77,29.74,4,3,2,10,8,,0.00,8,,142
2013-12-4,59,52,46,55,50,45,100,93,88,29.81,29.70,29.60,7,3,1,12,8,17,0.00,8,,151
2013-12-5,35,32,28,28,22,18,80,69,64,30.14,30.00,29.83,10,10,10,16,13,22,0.00,5,,268
2013-12-6,28,26,24,18,16,12,69,65,59,30.37,30.30,30.25,10,10,10,9,8,,0.00,8,Snow,317
2013-12-7,23,22,19,10,9,9,63,59,54,30.62,30.59,30.58,10,10,7,14,9,16,0.00,7,Snow,311
2013-12-8,26,22,17,18,14,10,74,68,59,30.45,30.25,30.08,10,8,4,16,11,21,0.00,7,Snow,92
2013-12-9,24,22,17,19,14,9,80,71,63,30.16,30.08,29.96,10,8,2,20,15,25,0.00,6,Snow,244
2013-12-10,23,13,3,9,5,-6,66,59,53,30.18,30.09,30.01,10,10,10,23,12,31,0.00,6,,239
2013-12-11,23,18,14,18,12,3,86,75,62,30.46,30.35,30.26,10,4,0,14,8,21,0.00,7,Snow,288
2013-12-12,19,8,-2,9,-2,-9,72,59,42,30.46,30.34,30.25,10,10,7,15,9,25,0.00,2,,227
2013-12-13,30,22,15,19,14,7,69,63,54,30.21,30.17,30.14,10,10,10,8,3,,0.00,2,,135
2013-12-14,24,24,23,19,19,18,86,82,80,30.05,29.93,29.85,7,2,1,14,11,18,0.00,8,Snow,62
2013-12-15,19,17,15,16,11,9,86,76,68,30.00,29.95,29.91,7,3,1,15,13,22,0.00,8,Snow,242
2013-12-16,19,12,6,16,9,1,93,75,63,30.15,30.08,30.02,10,6,1,10,2,,0.00,6,Snow,121
2013-12-17,28,22,17,23,19,14,93,83,74,30.02,29.97,29.93,10,4,1,10,9,16,0.00,8,Snow,236
2013-12-18,26,22,17,12,12,10,74,63,55,30.17,30.06,29.92,10,10,10,12,8,,0.00,2,,209
2013-12-19,41,38,35,34,32,30,81,74,70,29.96,29.92,29.89,10,10,10,10,6,,0.00,5,,181
2013-12-20,41,38,35,41,39,36,100,100,100,29.79,29.74,29.70,4,1,0,6,0,,0.00,8,Fog-Rain,103
2013-12-21,35,34,33,36,35,34,100,100,100,29.82,29.79,29.74,7,3,0,8,1,,0.00,8,Rain,70
2013-12-22,35,34,32,34,32,30,100,94,87,29.90,29.75,29.62,10,6,2,12,5,,0.00,8,Rain,224
2013-12-23,26,20,14,23,15,3,86,72,62,30.38,30.30,30.18,10,9,3,16,12,21,0.00,7,Snow,255
2013-12-24,19,12,5,9,5,0,79,70,63,30.52,30.49,30.46,10,8,2,9,7,,0.00,3,Snow,225
2013-12-25,,,,,,,,,,,,,,,,,,,,,,
2013-12-26,30,24,21,21,16,12,86,71,59,30.28,30.23,30.15,10,10,7,12,9,,0.00,7,Snow,221
2013-12-27,41,36,30,30,28,27,86,73,61,30.30,30.24,30.14,10,10,10,9,4,,0.00,2,,208
2013-12-28,48,42,35,32,31,28,75,62,54,30.12,30.05,29.98,10,10,10,15,8,16,0.00,0,,206
2013-12-29,39,36,32,30,28,25,87,72,65,29.90,29.81,29.77,10,9,7,17,9,25,0.00,5,,281
2013-12-30,21,18,15,10,9,7,73,68,58,30.26,30.20,30.17,10,10,10,12,8,,0.00,7,,265
2013-12-31,15,14,12,9,6,3,79,72,58,30.32,30.26,30.16,10,6,1,15,11,,0.00,7,Snow,247